Regional Weather Roundup
Issued by NWS

Home | Current Version | Previous Version | Text Only | Print | Product List | Glossary Off
Versions: 1 2 3 4 5 6 7 8 9 10 11 12 13 14 15 16 17 18 19 20 21 22 23 24 25 26 27 28 29 30 31 32 33 34 35 36 37 38 39 40 41 42 43 44 45 46 47 48 49 50

000
ASUS43 KMKX 250200
RWRWI

WISCONSIN REGIONAL WEATHER ROUNDUP
NATIONAL WEATHER SERVICE MILWAUKEE/SULLIVAN WI
800 PM CST FRI FEB 24 2017

NOTE: "FAIR" INDICATES FEW OR NO CLOUDS BELOW 12,000 FEET WITH NO
SIGNIFICANT WEATHER AND/OR OBSTRUCTIONS TO VISIBILITY.

WIZ001-002-006>008-014>016-023>028-250300-
NORTHWEST WISCONSIN

CITY           SKY/WX    TMP DP  RH WIND       PRES   REMARKS
SUPERIOR ARPT  CLOUDY    20   9  60 N9G17     29.90F WCI  10
ASHLAND        CLOUDY    20   9  62 N10       29.85F WCI   9
HAYWARD        CLOUDY    19   7  59 N10       29.81F WCI   7
SIREN          CLOUDY    21  10  61 N9        29.86S WCI  11
CUMBERLAND     CLOUDY    19  10  68 N16       29.81S WCI   5
RICE LAKE      CLOUDY    20  10  66 N13G22    29.83S WCI   7
CHETEK         LGT SNOW  18  13  82 N8G17     29.82R WCI   7
LADYSMITH      LGT SNOW  17  13  83 N16G22    29.78S WCI   2
EAU CLAIRE     NOT AVBL
MENOMONIE      LGT SNOW  20  16  84 NW15      29.82S WCI   6
NEW RICHMOND   CLOUDY    23  12  64 N20G25    29.84S WCI   8
OSCEOLA        CLOUDY    23  11  61 N10G23    29.89S WCI  12
$$

WIZ003>005-009-010-017-018-250300-
NORTH CENTRAL WISCONSIN

CITY           SKY/WX    TMP DP  RH WIND       PRES   REMARKS
MANITOWISH WTR LGT SNOW  16  14  93 N9        29.70F WCI   4
ARBOR VITAE    LGT SNOW  19  15  83 N13         N/A  WCI   6
WOODRUFF       LGT SNOW  19  15  83 N13         N/A  WCI   6
RHINELANDER    LGT SNOW  18  14  84 VRB6      29.66F FOG     WCI  10
EAGLE RIVER    LGT SNOW  17  11  79 N13G22    29.67R WCI   3
LAND O LAKES   LGT SNOW  17  14  87 N8        29.68F WCI   7
PHILLIPS       LGT SNOW  16  13  90 N10G17    29.71F WCI   3
TOMAHAWK       FLURRIES  18  13  82 N7G17     29.69S WCI   8
MEDFORD        LGT SNOW  18  14  84 N13G25    29.68R WCI   4
MERRILL        NOT AVBL
$$

WIZ029-030-035-036-043>047-250300-
CENTRAL WISCONSIN

CITY           SKY/WX    TMP DP  RH WIND       PRES   REMARKS
WAUSAU         LGT SNOW  20  16  84 N12       29.65S FOG     WCI   8
MOSINEE        LGT SNOW  19  18  93 N15G21    29.67R WCI   5
MARSHFIELD     LGT SNOW  20  15  81 N13       29.67R WCI   7
STEVENS POINT  MIX PCPN  20  19  96 N13       29.66R WCI   7
WAUPACA        MIX PCPN  27  24  89 NW9       29.63S WCI  17
WAUTOMA        LGT SNOW  25  23  92 NW10      29.65R FOG     WCI  15
WISC RAPIDS    FLURRIES  22  18  85 N17       29.68R WCI   8
CAMP DOUGLAS   LGT SNOW  23  21  93 N12       29.68R FOG     WCI  12
$$

WIZ011>013-019>022-031-037>040-048>050-250300-
NORTHEAST WISCONSIN

CITY           SKY/WX    TMP DP  RH WIND       PRES   REMARKS
ANTIGO         LGT SNOW  17  13  83 N20G28    29.63S WCI   1
SHAWANO        LGT SNOW  26  22  88 CALM      29.63S
OCONTO         CLOUDY    24  22  92 N12       29.59F WCI  13
STURGEON BAY   MIX PCPN  26  25  96 MISG      29.56S FOG
GREEN BAY      CLOUDY    26  24  92 N15       29.59S FOG     WCI  14
MANITOWOC      NOT AVBL
APPLETON       CLOUDY    25  25 100 N12G20    29.58R FOG     WCI  14
CLINTONVILLE   MIX PCPN  25  23  93 N10G17    29.63R WCI  15
OSHKOSH        CLOUDY    26  23  88 N16       29.60R FOG     WCI  14
$$

WIZ032>034-041-042-053>061-250300-
SOUTHWEST WISCONSIN

CITY           SKY/WX    TMP DP  RH WIND       PRES   REMARKS
LA CROSSE      CLOUDY    24  20  84 N20       29.74S FOG     WCI  10
SPARTA         LGT SNOW  24  21  89 NW9       29.72S WCI  14
VIROQUA        CLOUDY    24  22  91 N10       29.67S WCI  13
BOSCOBEL       LGT SNOW  28  23  81 N7        29.69S WCI  21
PRAIRIE DU CHI LGT SNOW  28  25  90 NW12      29.71S WCI  17
PLATTEVILLE    CLOUDY    28  28 100 N7        29.65S WCI  21
$$

WIZ056-057-062-063-064-067-068-250300-
SOUTH CENTRAL WISCONSIN

CITY           SKY/WX    TMP DP  RH WIND       PRES   REMARKS
REEDSBURG      FLURRIES  26  25  97 NW7       29.65S WCI  18
BARABOO/DELLS  MIX PCPN  26  24  95 N7        29.63F WCI  18
LONE ROCK      NOT AVBL
MINERAL POINT  CLOUDY    30  30 100 N3        29.63S FOG
MADISON        FRZ DRZL  27  24  89 NW10      29.63R WCI  17
MIDDLETON      CLOUDY    29  28  97 N5        29.63S WCI  24
WATERTOWN      CLOUDY    28  28 100 NW9G17    29.59R WCI  19
MONROE         CLOUDY    28  28 100 N9        29.61R WCI  20
JANESVILLE     CLOUDY    30  30 100 N14G20    29.60R WCI  20
$$

WIZ051-052-058>065-066-070>072-250300-
SOUTHEAST WISCONSIN

CITY           SKY/WX    TMP DP  RH WIND       PRES   REMARKS
MILWAUKEE      DRIZZLE   33  29  85 NW13      29.54S FOG     WCI  24
WAUKESHA       CLOUDY    28  27  93 NW13      29.56S FOG     WCI  18
MILWAUKEE/TIMM CLOUDY    30  27  86 NW9       29.55F FOG     WCI  22
RACINE         CLOUDY    32  30  92 NW9       29.57R FOG     WCI  24
KENOSHA        CLOUDY    32  30  92 NW9       29.55R FOG     WCI  24
FOND DU LAC    MIX PCPN  27  22  81 N14       29.60R WCI  16
SHEBOYGAN      FRZ RAIN  27  24  89 N16       29.54S FOG     WCI  15
WEST BEND      MIX PCPN  28  28 100 N3        29.55S
JUNEAU         CLOUDY    26  24  94 NW6       29.60R FOG     WCI  19
$$

LSZ147-162-250300-
LAKE SUPERIOR

STATION/POSITION TIME  TEMP    WIND        PRES    WAVE
                       AIR SEA DIR/SP/G            HT/PER
                 (UTC) (F)     (DEG/KT/KT) (MB)    (FT/S)
DEVILS ISLAND    0100   21     340/ 17/ 21 1012.5F
PORT WING        0140   23     350/ 19/ 23 1011.9F
SAXON HARBOR     0030   22      10/ 20/ 26 1010.5F
$$

LMZ867-665-643>646-250300-
LAKE MICHIGAN

STATION/POSITION TIME  TEMP    WIND        PRES    WAVE
                       AIR SEA DIR/SP/G            HT/PER
                 (UTC) (F)     (DEG/KT/KT) (MB)    (FT/S)
CHAMBERS ISLAND  0140   27     350/  4/  5 1001.4F
NORTHPORT PIER   0140   27     360/  4/  5 1001.7F
SISTER BAY       0105   26        CALM       N/A
KEWAUNEE LAKESHO 0130   27     350/ 12/ 17 1000.2F
SHEBOYGAN LAKESH 0100   29     340/  8/ 10 1000.6R
PORT WASHINGTON  0130   30     310/  8/ 14 1001.7S
MILWAUKEE LAKESH 0130   32     320/  9/ 11   N/A
KENOSHA   LAKESH 0100   34     310/  7/ 12 1000.3
$$

TC  - TEMPERATURE IN CELSIUS
VSB - VISIBILITY IN STATUTE MILES
WCI - WIND CHILL INDEX
HX  - HEAT INDEX





USA.gov is the U.S. government's official web portal to all federal, state and local government web resources and services.